Skip Page Navigation
NASA JPL Caltech
NASA Logo - Jet Propulsion Laboratory + View the NASA Portal
+ Near-Earth Object (NEO) Project
Search JPL
JPL Home Earth Solar System Stars & Galaxies Technology
JPL Solar System Dynamics
BODIES ORBITS EPHEMERIDES TOOLS PHYSICAL DATA DISCOVERY FAQ SITE MAP
JPL Small-Body Database Browser
Search: [ help ]  
433 Eros (1898 DQ)
Classification: Amor [NEO]          SPK-ID: 2000433
Ephemeris | Orbit Diagram | Orbital Elements | Physical Parameters | Discovery Circumstances | Close-Approach Data ]

[ show orbit diagram ]
Orbital Elements at Epoch 2455200.5 (2010-Jan-04.0) TDB
Reference: JPL 307 (heliocentric ecliptic J2000)
 Element Value Uncertainty (1-sigma)   Units 
e .2227892845996997 1.0729e-08  
a 1.458104555185428 8.7544e-10 AU
q 1.133254484464103 1.5633e-08 AU
i 10.82931678932602 3.0005e-06 deg
node 304.371609023743 1.1247e-05 deg
peri 178.7591190699717 1.4943e-05 deg
M 303.6777989941052 1.3288e-05 deg
tp 2455301.114029945765
(2010-Apr-14.61402995)
2.382e-05 JED
period 643.1043200297565
1.76
5.7918e-07
1.586e-09
d
yr
n .5597847639763059 5.0414e-10 deg/d
Q 1.782954625906753 1.0705e-09 AU
  Orbit Determination Parameters
   # obs. used (total)      3682  
   # delay obs. used      1  
   # Doppler obs. used      3  
   data-arc span      16930 days (46.35 yr)  
   first obs. used      1963-07-15  
   last obs. used      2009-11-20  
   planetary ephem.      DE405  
   SB-pert. ephem.      SB405-CPV-2  
   quality code      0  
   fit RMS      .54669  
   data source      ORB  
   producer      Otto Matic  
   solution date      2009-Nov-21 01:50:22  

Additional Information
 Earth MOID = .148848 AU 
 T_jup = 4.582 
[ show covariance matrix ]

Ephemeris | Orbit Diagram | Orbital Elements | Physical Parameters | Discovery Circumstances | Close-Approach Data ]

Physical Parameter Table
Parameter Symbol Value Units Sigma Reference Notes
absolute magnitude H 11.16 mag n/a PDS3 (MPC 17258)  
magnitude slope G 0.46   n/a PDS3 (MPC 17258) Fit
diameter diameter 16.84 km 0.06 Yeomans et al. (2000) Science v.289,pp.2085-2088 sphere having the measured volume of 2503 +/- 25 km^3
extent extent 34.4x11.2x11.2 km n/a Veverka et al. (2000) Science v.289,pp.2088-2097  
GM GM 4.463e-04 km^3/s^2 0.001e-04 Yeomans et al. (2000) Science v.289,pp.2085-2088  
bulk density density 2.67 g/cm^3 0.03 Yeomans et al. (2000) Science v.289,pp.2085-2088 based on a volume of 2503 +/- 25 km^3
rotation period rot_per 5.270 h n/a IAU Lightcurve Data
(A.W. Harris, E-mail Mar. 2006)
Published Reference List:
[Bailey, S.J.: 1913, Ann. Harvard Coll. Obs. 72, 165-189.]
[Campa, M.: 1938, Mem. Soc. Astron. Ital. 11, 285-301.]
[Roach, F.E., Stoddard, L.G.: 1938, Astrophys. J. 88, 305-312.]
[Beyer, M.: 1953, Astron. Nachr. 281, 121-130.]
[Chen, D.-h., Yang, X.-y., Wu, Z.-x.: 1975, Acta Astron. Sin. 16, 131-137.]
geometric albedo albedo 0.25   0.06 Veverka et al. (2000) Science v.289,pp.2088-2097 average
B-V BV .921 mag .021 EAR-A-5-DDR-UBV-MEAN-VALUES-V1.1 #obs=48; phase (min.=8.73, mean=34.88, max.=57.19) deg.
U-B UB .531 mag .027 EAR-A-5-DDR-UBV-MEAN-VALUES-V1.1 #obs=45; phase (min.=7.37, mean=34.55, max.=57.19) deg.
Tholen spectral type spec_T S   n/a EAR-A-5-DDR-TAXONOMY-V4.0 used 7 color indices; used ground-based radiometric albedo
SMASSII spectral type spec_B S   n/a EAR-A-5-DDR-TAXONOMY-V4.0 based on a high-resolution spectrum by Xu et al. (1995) or Bus and Binzel (2002)

433 Eros (1898 DQ)           Discovered 1898-Aug-13 by Witt, G. at Berlin
Reference: DISCOVERY.DBLast Updated: 2003-08-29

[ show close-approach data ]
Alternate Designations
 1898 DQ = 1956 PC 
Ephemeris | Orbit Diagram | Orbital Elements | Physical Parameters | Discovery Circumstances | Close-Approach Data ]
ABOUT SSD CREDITS/AWARDS PRIVACY/COPYRIGHT GLOSSARY LINKS
FirstGov 2009-Nov-23 01:28 UT
(server date/time)  
NASA Home Page
Site Manager:   Donald K. Yeomans
Webmaster  Alan B. Chamberlin